Temperature
15 15 16 16 14 11 13 14 15 16 17 19 20 20 19 19 19 20 20 21 20 19 17 17 17 17 17 17 17 17 16 16 16 16 16 16 15 15 15 15 15 16 16 15 15 15 15 15 15
14 15 15 15 12 12 13 14 15 16 18 19 20 19 19 19 19 20 20 20 19 19 17 17 17 17 17 17 17 17 16 16 16 16 16 16 16 15 15 15 15 16 16 16 16 15 15 15 15
14 14 15 12 11 12 14 14 14 17 18 19 19 19 19 19 19 19 20 19 19 19 18 17 17 17 17 17 17 17 16 16 16 16 16 16 16 15 15 15 16 16 16 16 15 15 15 15 15
13 14 13 11 12 12 15 16 15 17 18 19 19 18 18 18 19 19 19 19 19 18 18 17 17 17 17 17 17 17 16 16 16 16 16 16 16 16 16 15 16 16 16 16 15 15 15 15 15
13 13 11 11 12 12 13 15 16 17 17 18 18 17 18 19 19 19 19 19 19 18 18 17 16 16 17 17 17 16 16 16 16 16 16 16 16 16 16 16 16 16 16 15 15 15 15 15 15
12 11 11 11 11 13 13 16 17 17 17 18 18 17 18 19 19 19 19 18 18 18 17 17 16 16 16 16 16 16 16 17 17 16 17 17 16 16 16 16 16 16 16 15 15 15 15 15 15
11 10 10 11 12 13 14 16 16 16 16 18 18 17 17 18 18 18 18 18 17 17 17 16 16 16 16 16 16 16 16 16 17 17 17 17 16 16 16 16 16 16 16 16 16 15 15 15 15
11 10 10 10 11 13 15 16 17 17 17 18 18 17 17 18 18 17 17 17 16 16 16 16 16 16 16 16 16 16 16 16 16 17 17 17 17 16 16 16 16 16 16 16 16 15 15 15 15
11 9 10 10 11 13 15 16 17 17 18 18 18 18 18 18 17 17 16 16 16 15 16 16 16 16 16 16 16 16 16 16 16 16 17 17 17 16 16 16 16 16 16 16 16 15 15 15 15
10 9 10 11 12 13 15 16 17 17 16 17 17 18 18 18 17 16 16 16 16 15 15 15 16 15 15 16 16 16 16 16 16 16 17 17 17 16 16 16 16 16 16 16 16 15 15 15 15
9 9 11 12 13 14 15 15 16 16 16 16 17 18 17 17 17 16 16 16 16 16 16 15 15 15 15 15 16 16 16 16 16 16 16 17 16 16 16 16 16 16 16 16 16 15 15 15 15
9 9 11 12 14 14 14 15 15 16 17 18 18 18 17 17 17 17 16 16 16 16 16 16 15 15 15 15 15 16 16 16 16 16 17 17 16 16 16 16 16 16 16 16 15 15 15 15 15
9 10 11 13 13 13 14 14 14 15 16 17 17 17 17 17 17 17 17 16 16 16 16 16 16 15 15 15 15 15 16 16 16 16 16 16 16 16 16 16 16 16 15 15 15 15 15 15 15
9 10 11 12 12 13 13 13 14 15 16 17 17 17 17 17 17 17 17 17 16 17 16 16 16 16 15 15 15 15 15 15 15 16 16 16 16 16 16 16 15 15 15 15 15 15 14 14 14
10 9 10 11 12 12 13 12 13 15 15 16 16 17 17 17 17 18 18 17 17 17 17 16 16 16 15 15 15 15 15 15 15 15 15 16 16 16 16 15 15 15 15 15 14 14 14 14 14
9 9 9 10 10 12 12 11 12 14 15 15 16 16 16 17 17 17 17 17 17 17 17 16 16 16 15 15 15 15 15 15 15 15 15 15 15 15 15 15 15 15 14 14 14 14 14 14 14
8 8 8 9 10 10 11 11 12 14 14 14 15 16 16 16 17 17 17 17 17 17 17 16 16 16 15 15 15 15 15 14 14 14 14 15 15 15 15 15 15 14 14 14 14 14 13 13 13
7 7 8 8 9 10 10 10 11 12 13 14 14 15 15 16 17 17 17 17 17 17 16 16 16 16 15 15 15 15 15 14 14 14 14 14 14 14 14 14 14 14 13 13 13 13 13 13 12
7 7 8 8 9 10 9 10 10 11 12 12 13 14 15 16 16 17 17 17 17 16 16 16 16 16 15 15 15 15 15 15 14 14 14 14 14 14 14 14 14 13 13 13 13 12 12 12 12
7 7 8 8 9 10 9 9 10 10 11 12 13 14 15 15 16 16 16 17 17 17 16 16 16 16 15 15 15 15 15 15 15 14 14 14 14 14 14 14 13 13 13 13 12 12 12 12 12
7 7 7 8 9 9 9 9 9 10 11 12 13 14 14 15 15 16 16 16 16 16 16 16 16 16 16 15 15 15 15 14 14 14 14 14 14 14 14 13 13 13 13 13 13 12 12 12 12
7 7 8 8 8 7 8 7 8 8 9 10 11 13 14 14 15 15 15 16 16 16 16 16 16 16 15 15 15 15 15 15 15 14 14 14 14 14 14 13 13 13 13 13 13 12 12 12 11
7 8 8 7 7 7 7 7 7 8 8 9 10 12 14 14 15 15 15 15 15 16 16 16 15 15 15 15 15 15 15 14 14 14 14 14 14 14 13 13 13 13 13 13 13 12 12 12 11
7 7 7 6 6 7 6 7 7 7 8 9 10 12 13 14 14 14 14 15 15 15 15 15 15 15 15 15 15 14 14 14 14 14 14 14 13 13 13 13 13 13 13 13 12 12 12 11 11
6 6 6 6 6 6 6 7 7 8 8 8 9 11 12 13 13 14 14 14 14 14 14 14 14 14 14 14 14 14 14 14 13 13 13 13 13 13 13 13 13 13 12 12 12 12 11 11 11
6 6 6 6 6 5 6 6 7 8 8 9 9 10 11 12 13 13 13 13 13 13 13 13 13 14 13 13 13 13 13 13 13 13 13 13 12 12 12 12 12 12 12 11 11 11 11 11 10
6 6 6 5 5 5 6 6 6 8 7 7 8 9 10 11 11 12 12 12 12 12 12 12 13 13 13 12 12 12 12 12 12 12 12 12 12 12 12 12 12 11 11 11 11 10 10 10 10
6 6 5 5 5 6 7 6 7 8 8 7 7 7 8 9 10 11 11 11 11 11 11 11 11 11 11 11 11 11 11 11 11 11 11 11 11 11 11 11 11 10 10 10 10 9 9 9 9
5 6 5 5 5 5 6 7 8 7 8 7 6 7 8 9 9 10 10 10 10 10 10 10 10 10 10 10 10 10 10 10 10 10 10 10 10 10 10 10 10 9 9 9 9 9 8 8 8
6 6 5 5 5 4 5 7 8 7 6 6 7 8 8 9 9 9 9 10 10 10 10 10 10 9 9 9 9 9 9 9 10 9 9 9 9 9 9 9 9 8 8 8 8 8 7 7 7
Wind_Speed
4 3 3 4 5 3 5 6 4 4 4 3 2 3 6 6 5 4 2 9 12 14 18 21 21 20 20 19 18 17 17 16 16 16 16 15 14 14 14 14 14 14 14 14 15 16 16 16 15
1 2 4 4 5 4 6 6 6 6 3 2 1 2 1 1 1 4 6 8 14 15 17 19 21 20 20 19 18 17 16 16 15 15 15 14 14 14 14 14 14 14 14 15 15 15 15 15 14
1 3 3 4 5 8 7 6 7 4 4 1 1 1 1 1 2 6 6 11 13 13 16 19 21 21 20 19 18 17 16 15 15 15 14 14 14 14 14 14 14 14 14 15 15 14 14 13 13
3 3 4 3 8 8 7 4 4 1 2 1 1 2 1 3 3 5 10 14 14 11 16 20 21 20 20 19 18 16 15 15 14 14 14 13 13 14 14 14 14 14 14 14 14 13 13 12 12
3 4 4 5 9 6 5 4 3 1 1 1 2 1 3 6 3 9 14 15 14 11 15 20 21 20 20 19 17 16 15 15 14 14 13 13 14 14 14 14 13 13 13 13 12 12 11 11 11
3 3 6 10 10 6 5 4 2 2 1 1 2 1 3 3 6 12 14 13 11 11 13 18 21 21 20 18 17 16 15 14 14 13 13 13 14 14 14 13 13 12 12 12 11 11 10 11 11
5 5 7 8 8 7 6 4 4 3 2 3 4 2 2 2 6 11 11 11 9 9 10 14 18 19 19 18 17 16 15 14 13 13 13 13 14 14 14 13 12 11 11 10 10 9 9 9 9
4 5 6 7 9 9 5 5 4 6 3 2 5 5 4 4 9 10 11 10 9 8 7 10 14 16 16 16 17 17 16 14 13 13 13 14 14 14 13 13 11 10 10 9 9 8 8 8 8
4 4 8 9 10 7 5 5 3 3 4 2 1 3 3 10 12 12 10 9 10 10 8 8 10 12 14 14 15 16 15 14 13 12 13 14 12 12 11 11 11 10 9 8 8 7 7 7 7
5 7 9 6 6 5 6 6 4 3 1 1 1 1 5 13 15 14 13 14 13 13 11 8 9 10 12 12 12 13 12 12 11 12 12 12 11 11 10 11 10 9 8 7 7 6 6 6 5
6 7 4 2 3 3 4 4 3 5 5 5 5 5 10 13 15 15 14 13 13 12 11 10 9 11 11 9 10 10 10 10 10 11 12 11 10 9 8 8 8 8 7 5 5 4 4 4 4
5 4 4 2 0 1 3 3 3 6 7 4 5 8 11 15 16 16 15 14 12 12 12 10 10 9 10 10 10 10 9 9 9 11 12 11 8 7 7 7 7 7 6 5 4 4 3 3 3
4 3 3 2 1 1 1 2 4 6 5 1 3 7 10 13 13 11 10 11 11 13 13 11 11 11 10 9 8 9 9 10 11 11 12 12 9 6 7 6 7 7 7 6 5 4 4 3 3
5 3 2 2 1 2 1 2 3 6 3 2 4 7 8 11 10 8 9 11 12 13 13 11 12 11 11 8 7 8 10 11 11 12 13 14 12 9 7 6 7 8 9 8 7 6 4 3 3
4 3 1 3 3 2 2 4 6 5 2 3 5 6 7 7 8 10 11 11 12 11 11 11 12 11 11 10 9 9 11 11 10 12 14 14 14 12 10 7 6 9 10 9 6 5 3 3 3
4 4 5 5 6 4 5 9 8 3 5 5 5 4 5 6 7 7 8 8 9 9 9 10 10 11 11 9 9 9 10 11 11 12 13 15 15 14 11 7 7 11 10 8 5 3 3 3 3
5 7 7 4 6 6 8 8 6 3 6 6 5 5 5 5 4 4 5 7 8 9 9 9 9 10 10 9 8 8 9 10 10 11 12 14 15 15 12 9 9 11 9 7 5 4 4 4 5
7 6 6 6 4 6 8 7 4 1 4 6 5 4 5 6 6 4 3 4 6 7 8 8 8 8 8 7 5 4 5 5 8 9 11 13 13 15 13 10 10 10 6 5 5 6 5 4 4
4 5 5 4 2 5 8 8 7 4 3 5 6 5 6 7 5 3 3 3 4 5 6 7 7 7 7 5 5 5 5 5 5 6 10 11 12 13 12 8 7 8 7 8 8 6 5 5 3
5 5 5 2 1 3 4 8 7 6 6 7 8 8 8 6 5 3 3 2 4 5 6 7 7 7 7 6 5 3 4 4 5 4 7 9 10 11 11 9 6 7 7 8 8 6 4 4 5
6 7 6 4 2 2 1 5 7 7 6 7 8 8 8 9 8 6 5 4 4 4 6 6 7 6 6 6 4 3 3 2 2 3 4 5 8 9 10 9 8 7 8 8 9 9 8 6 6
5 5 5 5 5 2 4 5 7 7 8 10 11 10 10 9 8 7 6 5 5 5 4 5 5 5 5 6 6 6 6 5 5 4 4 3 5 6 7 7 8 7 7 8 8 9 8 7 6
3 3 4 4 4 1 1 3 8 4 8 12 12 12 12 11 10 9 8 6 4 3 3 3 4 3 3 4 6 6 5 4 3 2 3 3 3 3 4 5 4 5 5 7 7 7 8 8 8
4 5 4 3 3 3 6 6 7 6 9 8 9 10 10 10 9 8 6 5 3 2 3 3 4 3 3 4 4 5 6 5 4 3 3 3 2 2 2 3 3 3 4 5 6 6 7 7 8
4 5 3 2 3 5 5 6 9 8 8 8 9 9 7 7 8 8 8 7 5 4 3 3 4 3 2 3 3 3 4 4 5 4 3 3 2 2 3 3 3 3 4 4 4 5 5 6 6
5 5 5 5 6 3 3 8 8 7 6 6 7 6 5 6 7 8 8 7 6 5 4 4 4 3 3 3 2 2 2 2 2 2 2 2 2 2 2 2 2 2 2 2 3 3 4 3 4
6 4 3 4 2 2 5 7 9 4 5 4 3 3 4 5 6 7 7 6 6 5 4 4 4 4 3 3 3 3 2 2 2 1 1 1 1 1 1 1 1 1 1 1 1 2 2 2 2
3 5 4 4 4 3 4 5 5 6 6 4 3 3 4 4 5 6 6 5 5 4 4 4 4 4 3 3 3 3 3 3 3 3 2 1 1 1 1 1 1 1 1 1 1 1 1 2 1
5 3 4 3 3 4 3 6 5 6 6 5 5 4 5 6 6 5 5 5 5 5 5 4 4 4 4 4 4 4 4 4 4 4 3 3 3 3 3 3 3 3 3 3 3 3 3 3 3
4 5 6 4 3 3 3 6 4 5 5 5 5 4 4 5 5 5 5 5 5 5 4 4 3 4 3 3 4 4 4 4 5 5 4 4 4 4 4 4 4 4 4 4 4 4 4 4 4
Wind_Direction
327 16 57 58 63 74 219 234 227 248 234 235 221 186 172 171 173 194 127 143 140 148 157 156 157 153 149 144 140 137 134 131 129 127 125 123 122 119 116 111 108 104 101 101 102 100 97 98 98
354 49 57 71 124 186 240 230 224 224 243 309 351 121 129 230 146 124 141 155 146 148 154 155 156 154 150 147 144 142 139 137 134 132 130 127 126 124 119 115 111 108 105 105 104 102 100 99 99
108 55 96 108 166 194 218 219 220 254 285 284 2 43 155 242 160 167 166 153 145 146 151 155 155 154 151 149 147 145 143 141 139 137 134 133 131 128 124 119 115 114 111 110 108 106 103 102 101
103 70 75 146 212 213 205 203 190 268 3 34 64 359 337 357 210 173 148 149 144 142 148 155 154 154 152 151 150 149 147 145 141 141 140 139 138 134 128 124 120 119 118 117 114 109 106 104 104
79 114 149 210 227 233 229 220 180 134 355 18 74 25 319 350 76 132 146 151 148 144 149 155 154 154 152 152 152 150 149 147 145 144 144 144 142 139 134 129 128 127 126 123 120 114 110 108 109
112 122 176 212 223 239 243 216 183 181 178 14 103 103 315 19 122 140 149 151 147 146 148 155 154 153 153 154 153 151 149 149 149 150 149 147 145 142 140 137 135 135 133 130 127 121 115 112 112
154 164 196 200 208 229 227 188 186 184 199 213 158 134 308 105 137 141 143 142 139 139 144 151 153 153 154 155 153 151 150 150 152 154 153 150 148 146 147 146 144 141 139 136 133 129 122 117 115
159 157 185 193 194 220 207 180 193 180 209 190 149 158 215 172 141 134 136 139 139 138 142 147 151 153 154 155 155 153 153 153 154 153 151 149 148 150 152 153 152 148 145 143 141 136 129 121 118
134 168 203 199 192 209 189 187 205 160 136 129 171 202 207 139 141 141 143 148 155 157 154 150 150 151 152 154 157 155 155 154 151 149 150 149 149 151 154 157 157 154 151 151 149 142 131 122 118
163 205 215 195 189 188 190 192 184 135 151 156 62 45 123 146 156 160 163 167 170 172 171 163 157 155 155 157 154 153 153 153 151 150 150 150 152 154 158 162 163 162 158 157 156 146 131 125 121
181 207 199 205 202 186 180 194 175 162 215 203 189 170 153 163 167 171 174 176 178 176 176 173 167 162 158 153 154 153 153 154 155 157 156 154 152 154 157 160 164 163 160 156 154 140 135 135 142
183 214 187 193 49 146 174 174 182 200 220 212 194 174 167 175 180 180 181 182 180 179 183 178 171 165 162 157 161 160 159 161 165 169 167 161 157 159 164 169 170 170 171 168 164 159 160 163 175
198 193 188 204 4 340 134 190 203 234 247 256 165 166 176 186 190 190 185 182 181 186 187 183 177 173 168 162 165 169 172 176 178 179 179 177 171 172 176 180 183 186 187 189 188 189 193 207 216
185 179 186 227 248 317 237 268 202 236 232 167 171 181 188 195 193 184 184 187 190 192 191 186 183 179 173 172 172 178 182 184 184 187 189 188 185 183 184 188 194 200 203 205 206 208 208 221 229
146 149 217 233 213 230 160 265 231 233 192 184 191 196 197 201 192 192 193 192 194 195 191 188 188 181 179 179 181 185 188 186 189 195 197 195 193 192 192 194 202 212 212 209 210 217 219 230 236
138 161 202 223 190 199 172 238 246 228 184 199 207 208 209 213 208 206 199 195 192 189 190 190 190 184 185 184 184 186 189 190 196 198 199 201 201 199 195 198 210 216 211 204 201 199 214 232 237
167 191 199 208 191 175 183 233 258 220 185 202 213 220 223 228 235 227 205 197 191 188 186 188 188 184 188 187 187 189 189 194 199 199 200 204 205 204 201 205 213 211 206 206 208 206 203 223 233
179 178 178 192 198 175 197 231 271 271 191 210 219 226 233 236 238 240 223 202 189 185 183 185 186 185 184 183 178 182 189 195 196 198 202 204 206 206 205 209 211 204 202 209 210 213 209 216 223
160 160 176 194 217 180 211 234 254 268 235 226 229 232 240 250 262 258 236 202 178 174 177 183 184 180 173 175 181 186 198 196 196 201 205 204 204 203 203 209 206 202 209 214 209 205 212 220 191
180 173 182 186 197 184 219 248 256 253 235 226 225 229 231 242 260 252 238 200 189 183 179 178 184 180 182 188 182 176 171 188 197 198 205 208 208 206 206 206 205 204 211 215 209 200 197 206 182
197 186 180 165 90 54 106 284 257 258 246 242 232 228 229 225 230 232 226 213 193 194 189 186 186 184 187 182 160 136 132 126 166 196 205 210 210 210 210 211 210 207 209 218 214 206 205 217 209
202 193 181 162 141 214 177 247 264 241 252 245 239 232 231 228 221 217 214 209 203 204 191 184 181 180 183 176 173 176 186 198 200 196 200 203 205 207 211 212 211 211 212 218 218 211 212 212 221
177 161 164 157 137 113 193 216 275 241 241 244 238 232 229 222 214 208 203 197 194 187 176 172 162 164 169 172 182 185 196 204 190 177 183 201 209 211 213 214 212 216 218 222 221 215 216 218 223
135 104 84 79 111 220 205 194 268 229 222 240 239 233 225 213 205 196 182 163 158 144 138 140 139 140 145 156 164 179 190 190 185 190 195 206 215 216 223 226 224 227 227 228 230 225 222 226 228
134 136 139 151 186 236 186 197 248 244 231 230 240 241 229 205 190 182 173 167 159 148 137 129 131 130 124 129 143 166 177 180 191 198 204 206 216 226 241 231 234 236 241 238 233 227 228 227 227
168 157 165 175 191 235 190 225 251 257 265 259 252 246 224 200 187 179 173 163 155 144 132 124 122 118 105 115 124 123 140 157 175 185 187 199 220 235 250 239 238 250 256 247 230 227 227 223 224
152 184 162 120 119 174 239 273 295 257 273 274 263 230 208 192 178 165 154 148 144 138 131 127 120 108 97 101 106 96 98 118 134 136 145 166 231 247 270 255 248 253 243 231 208 210 213 205 217
149 143 124 144 160 218 259 258 249 261 258 265 249 223 199 166 153 145 141 139 133 126 113 104 109 111 102 95 95 95 81 86 95 96 87 80 55 51 60 54 60 61 57 75 104 103 96 111 97
147 154 154 148 165 172 234 263 230 239 250 245 240 215 185 168 156 146 137 129 122 112 109 107 106 104 98 93 90 89 80 77 80 78 68 60 51 50 58 63 67 66 57 60 80 79 82 93 82
174 178 161 167 201 183 197 268 293 267 257 225 217 201 180 166 151 143 138 130 125 121 117 114 113 110 109 106 100 93 85 80 77 70 60 62 62 56 61 70 72 68 64 61 77 86 83 91 89
Height
1509 1511 1513 1516 1520 1530 1530 1522 1517 1514 1512 1511 1510 1510 1511 1513 1516 1519 1513 1513 1518 1522 1526 1531 1535 1538 1541 1544 1546 1548 1550 1551 1552 1553 1553 1554 1555 1556 1557 1557 1558 1558 1559 1559 1560 1561 1562 1563 1564
1508 1511 1514 1515 1524 1534 1528 1518 1515 1511 1510 1509 1509 1509 1509 1510 1510 1511 1510 1514 1518 1522 1526 1531 1535 1539 1542 1544 1547 1549 1550 1551 1553 1554 1554 1555 1556 1557 1558 1559 1560 1560 1561 1561 1562 1563 1564 1565 1566
1507 1509 1513 1516 1523 1525 1520 1512 1510 1509 1509 1509 1509 1509 1510 1510 1510 1510 1511 1514 1519 1523 1527 1531 1535 1539 1542 1545 1547 1549 1551 1552 1553 1554 1555 1556 1557 1558 1560 1561 1561 1562 1563 1563 1564 1565 1566 1567 1568
1506 1510 1512 1518 1518 1514 1509 1507 1507 1508 1508 1509 1509 1509 1510 1511 1511 1512 1513 1516 1519 1524 1528 1532 1536 1539 1542 1545 1547 1549 1551 1553 1554 1555 1556 1557 1558 1559 1561 1562 1563 1564 1565 1565 1566 1567 1568 1569 1570
1504 1507 1513 1516 1513 1509 1506 1505 1506 1507 1508 1509 1509 1510 1510 1511 1512 1513 1515 1518 1520 1524 1528 1532 1536 1540 1543 1545 1548 1550 1551 1553 1554 1555 1557 1558 1559 1560 1562 1563 1564 1565 1566 1567 1568 1569 1570 1571 1572
1503 1505 1512 1512 1510 1506 1504 1503 1505 1506 1508 1508 1509 1510 1510 1511 1513 1515 1517 1519 1522 1525 1529 1533 1537 1540 1543 1546 1548 1550 1552 1553 1555 1556 1557 1558 1560 1561 1563 1564 1565 1566 1567 1568 1569 1570 1572 1573 1574
1500 1503 1506 1506 1507 1505 1502 1502 1504 1505 1507 1508 1509 1510 1510 1511 1513 1516 1518 1521 1523 1527 1530 1533 1537 1540 1543 1546 1548 1550 1552 1554 1555 1557 1558 1559 1560 1562 1564 1565 1566 1568 1569 1570 1571 1572 1573 1574 1575
1497 1501 1503 1505 1504 1502 1499 1501 1501 1504 1505 1508 1509 1510 1510 1512 1514 1516 1519 1522 1524 1527 1531 1534 1537 1540 1543 1546 1548 1550 1552 1554 1555 1557 1558 1560 1561 1563 1564 1566 1567 1568 1570 1571 1572 1573 1574 1575 1575
1495 1501 1501 1500 1500 1498 1497 1499 1500 1502 1504 1506 1507 1509 1510 1512 1514 1517 1520 1522 1525 1528 1531 1534 1537 1540 1543 1546 1548 1550 1552 1554 1555 1557 1558 1560 1561 1563 1564 1566 1568 1569 1570 1571 1572 1573 1574 1575 1576
1493 1496 1494 1493 1493 1494 1495 1497 1499 1501 1503 1505 1506 1507 1509 1511 1514 1516 1518 1521 1523 1526 1530 1533 1536 1539 1542 1545 1547 1549 1551 1553 1555 1557 1558 1560 1561 1563 1565 1566 1568 1569 1570 1571 1572 1573 1574 1575 1576
1490 1491 1491 1491 1492 1493 1494 1496 1498 1500 1502 1503 1504 1506 1508 1510 1513 1515 1518 1520 1522 1526 1529 1532 1535 1538 1541 1543 1546 1548 1550 1552 1554 1556 1558 1559 1561 1562 1564 1566 1567 1569 1570 1571 1572 1573 1574 1575 1576
1489 1489 1489 1490 1491 1492 1493 1495 1497 1498 1499 1501 1503 1504 1506 1509 1512 1514 1516 1519 1522 1525 1528 1531 1534 1537 1540 1542 1545 1547 1549 1551 1553 1555 1557 1558 1560 1562 1563 1565 1567 1568 1569 1571 1572 1573 1573 1574 1575
1487 1487 1488 1490 1491 1492 1493 1494 1495 1495 1497 1499 1501 1504 1505 1508 1511 1514 1516 1519 1521 1524 1526 1529 1532 1535 1538 1541 1543 1546 1548 1550 1552 1554 1555 1557 1559 1561 1562 1564 1565 1567 1568 1570 1571 1571 1572 1573 1573
1485 1487 1488 1489 1491 1492 1493 1493 1494 1493 1495 1497 1499 1501 1504 1506 1509 1512 1515 1517 1520 1522 1525 1528 1530 1533 1536 1539 1541 1544 1546 1549 1550 1552 1554 1556 1557 1559 1561 1562 1564 1565 1567 1568 1569 1570 1570 1571 1572
1484 1487 1489 1489 1490 1491 1493 1495 1492 1491 1494 1495 1497 1500 1502 1505 1508 1510 1513 1515 1518 1521 1523 1526 1529 1531 1534 1537 1540 1542 1545 1547 1548 1550 1552 1554 1555 1557 1559 1560 1562 1564 1565 1566 1567 1568 1568 1569 1569
1484 1488 1491 1489 1489 1490 1496 1496 1489 1490 1492 1493 1495 1498 1500 1503 1506 1508 1511 1514 1516 1519 1522 1524 1527 1529 1532 1535 1538 1540 1543 1545 1546 1548 1550 1551 1553 1555 1556 1558 1559 1561 1562 1563 1564 1565 1565 1566 1566
1486 1489 1490 1489 1487 1489 1492 1493 1488 1489 1490 1492 1494 1496 1498 1501 1504 1506 1509 1511 1514 1517 1520 1522 1525 1527 1530 1533 1536 1538 1540 1542 1544 1546 1547 1549 1550 1552 1553 1555 1557 1558 1559 1560 1561 1561 1562 1563 1563
1485 1487 1489 1490 1487 1489 1491 1490 1488 1487 1488 1490 1492 1494 1496 1499 1501 1504 1507 1509 1512 1515 1517 1520 1523 1525 1528 1531 1533 1535 1537 1539 1541 1543 1544 1546 1547 1549 1550 1552 1553 1555 1555 1556 1557 1558 1559 1559 1560
1483 1486 1487 1488 1486 1488 1490 1490 1488 1487 1488 1489 1490 1492 1494 1496 1499 1502 1504 1507 1509 1511 1514 1517 1519 1522 1525 1527 1529 1531 1533 1535 1537 1539 1541 1543 1544 1546 1547 1548 1549 1550 1551 1552 1553 1554 1554 1555 1556
1483 1486 1487 1487 1486 1487 1489 1489 1487 1485 1485 1486 1488 1489 1492 1494 1496 1499 1501 1504 1506 1508 1511 1513 1516 1519 1521 1524 1526 1528 1530 1532 1534 1536 1537 1539 1540 1542 1543 1544 1545 1546 1547 1548 1549 1549 1550 1550 1551
1483 1486 1487 1487 1487 1488 1489 1490 1486 1482 1482 1483 1484 1486 1488 1490 1493 1496 1498 1500 1503 1505 1508 1510 1513 1515 1518 1520 1522 1524 1526 1527 1529 1531 1533 1534 1536 1537 1538 1539 1540 1541 1542 1543 1544 1544 1545 1545 1546
1483 1483 1484 1486 1491 1494 1492 1497 1487 1482 1480 1478 1478 1480 1483 1486 1489 1492 1494 1497 1499 1502 1505 1507 1510 1512 1514 1516 1518 1519 1521 1522 1524 1526 1528 1530 1531 1532 1533 1534 1535 1536 1536 1537 1538 1539 1539 1539 1539
1481 1481 1484 1487 1492 1497 1495 1497 1488 1481 1479 1474 1473 1474 1477 1480 1484 1487 1490 1493 1495 1498 1501 1503 1505 1508 1510 1512 1513 1515 1517 1518 1520 1522 1523 1524 1526 1527 1528 1529 1529 1530 1530 1531 1532 1532 1533 1533 1533
1480 1484 1487 1490 1493 1497 1494 1496 1488 1480 1472 1469 1468 1468 1471 1475 1478 1482 1485 1488 1491 1493 1496 1498 1501 1503 1505 1507 1509 1510 1512 1514 1515 1517 1518 1519 1520 1521 1522 1523 1523 1524 1524 1525 1525 1526 1526 1526 1527
1481 1486 1491 1492 1494 1495 1490 1490 1481 1469 1466 1465 1464 1464 1466 1470 1473 1476 1480 1483 1486 1489 1492 1494 1496 1498 1500 1502 1504 1506 1507 1509 1510 1511 1513 1514 1514 1515 1516 1517 1517 1517 1518 1518 1518 1519 1519 1520 1520
1480 1484 1489 1491 1495 1495 1490 1488 1474 1464 1462 1461 1461 1461 1462 1465 1468 1471 1475 1478 1482 1485 1488 1490 1492 1494 1496 1498 1500 1501 1503 1504 1505 1506 1507 1508 1509 1509 1510 1510 1510 1511 1511 1512 1512 1512 1512 1513 1513
1479 1483 1483 1491 1494 1494 1488 1482 1471 1461 1460 1459 1458 1458 1459 1461 1464 1467 1471 1475 1479 1482 1485 1487 1489 1491 1492 1494 1495 1497 1498 1499 1500 1501 1502 1503 1503 1504 1504 1504 1504 1505 1505 1505 1505 1505 1506 1506 1506
1477 1479 1486 1490 1491 1488 1482 1479 1472 1461 1459 1458 1458 1457 1458 1460 1463 1466 1470 1473 1477 1480 1482 1484 1486 1487 1489 1490 1491 1493 1494 1495 1496 1496 1497 1497 1498 1498 1498 1498 1499 1499 1499 1499 1499 1500 1500 1500 1500
1478 1480 1481 1486 1487 1489 1486 1475 1462 1460 1458 1458 1457 1457 1458 1460 1463 1466 1470 1473 1476 1478 1480 1482 1483 1485 1486 1487 1488 1489 1490 1491 1492 1492 1493 1493 1493 1493 1493 1493 1494 1494 1494 1494 1494 1495 1495 1495 1495
1473 1475 1479 1483 1486 1490 1488 1476 1457 1457 1455 1455 1456 1457 1459 1461 1464 1467 1470 1472 1474 1476 1478 1480 1481 1482 1483 1484 1485 1486 1487 1487 1488 1488 1489 1489 1489 1489 1489 1489 1489 1490 1490 1490 1490 1490 1491 1491 1491